Location: Fuglau
(48.6333°N, 15.5500°E)
Time: 05:02:56
(UTC+00:00)

SJ 16-02 - Pass Details

Date: 27 February 2020
Orbit: 606 x 616 km, 75.0° (Epoch: 28 March)

Event Time Altitude Azimuth Distance (km) Brightness Sun altitude
Rises 17:21:34 0° 342° (NNW) 2,892 5.0 -8.1°
Reaches altitude 10° 17:23:53 10° 348° (NNW) 1,981 4.1 -8.5°
Maximum altitude 17:28:10 48° 63° (ENE) 806 1.6 -9.2°
Drops below altitude 10° 17:32:25 10° 139° (SE) 1,960 3.6 -9.9°
Sets 17:34:42 0° 145° (SE) 2,858 4.4 -10.2°
